STARLINK-37747, 69440

Orbit data source: Space-Track

STARLINK-37747, 69440 is a payload satellite owned by SpaceX/Seattle (US) in SSO that was launched on Sun, 07 Jun 2026 UTC via an FALCON 9 launch vehicle from the Air Force Western Test Range (AFWTR). Payload-class satellites include a variety of spacecraft equipped with specific instruments for various scientific and technological missions. These include communications satellites like Starlink; space stations such as the ISS; scientific satellites like the Hubble; Earth observation satellites from companies like Planet Labs, Umbra, and HawkEye 360; GPS; miniature CubeSats for education and research; and military/defense satellites.

Loading next visibility...
Identifier
69440, 2026-126W
Orbit
SSO
Country
Flag of USUS
Related business
Manufacturer
SpaceX/Seattle
Mission
Operational spacecraft
Bus & Motor
STARLINK V2MO, Unknown motor
Mass
575 kg wet, ~530 kg dry
Launch date (UTC)
2026-06-07 (2 weeks ago)
Launch vehicle
FALCON 9
Launch site
Air Force Western Test Range (AFWTR)
Object type
Payload
Rocket body
Debris
Shape & HBR
Unknown
Radar Cross Section
RCS unknown

Expand to show TLE details & history
Last TLE update: 17 hours ago

TLE from 17 hours ago
0 STARLINK-37747
1 69440U 26126W   26171.13574103  .00168571  00000-0  89853-3 0  9995
2 69440  97.2823  31.3151 0001281 107.2796 252.8612 15.79950304  3219
Epoch: 2026-06-20T03:15Z
TLE epoch observation values (Epoch: 2026-06-20T03:15:28.024Z)
Latitude
-0.00006°
Longitude
74.09364°
Altitude
334.009 km
Speed
7.708 km/s
True Right ascension
02h 05m 15s
True Declination
0° 00' 00"
Sunlit
Object was in daylight at epoch
Visualization orbit readout
Latitude
Unknown
Longitude
Unknown
Altitude
Unknown
Speed
Unknown
Apparent Right ascension
Unknown
Apparent Declination
Unknown
Sunlit
N/A
Visualization observer readout
Local Sidereal Time
07:13:11
Azimuth
Unknown
Elevation
Unknown
Doppler factor
Unknown
Orbital elements
Apogee altitude
328.321 km
Perigee altitude
326.603 km
Semi-major axis
6,705.599 km
Eccentricity
0.00013
Inclination
97.2823°
RAAN
31.3151°
Arg. of periapsis
107.2796°
True anomaly
252.84717°
Mean anomaly
252.8612°
Eccentric anomaly
252.85419°
Mean motion
3.95264 °/min
Orbital period
91.08 mins
BSTAR
0.00089853
Loading maneuver chart data...
Computing Atmospheric mass density...
Loading historical data...
Loading historical data...
Loading historical data...
Loading historical data...
Loading historical data...
Loading historical data...
Loading historical data...

Documentation

Showing up to 5 results
|